Location: Doughton Park
(36.4224°N, 81.1835°W)
Time: 08:13:42
(UTC-04:00)

Amateur Radio Satellites - All Passes

Search period start: 22 October 2014 07:43
Search period end: 23 October 2014 07:43
Location: Doughton Park, 36.4224°N, 81.1835°W

Satellite Date Start Highest point End Downlink Frequencies (MHz)
Time Altitude Azimuth
STRAND 1 22 Oct 07:52:49 07:57:48 55° 259° (W) 08:02:51 ?
JAS-2 22 Oct 07:56:38 08:03:47 43° 292° (WNW) 08:11:00 435.800 - 435.900 CW/SSB, 435.910 FM
Saudisat 1A 22 Oct 08:14:30 08:18:24 32° 113° (ESE) 08:22:19 436.775 MHz
AO-7 22 Oct 08:23:11 08:26:11 12° 311° (NW) 08:29:12 29.400 - 29.500 MHz
RS-15 22 Oct 08:27:45 08:38:58 73° 58° (ENE) 08:50:40 29.354 - 29.394 USB, Beacon 29.352 USB
SO-67 22 Oct 09:01:28 09:04:33 31° 287° (WNW) 09:07:37 435.3500 MHz FM
PANSAT 22 Oct 09:02:21 09:04:34 15° 164° (SSE) 09:06:47 not established
Saudisat 1A 22 Oct 09:54:25 09:57:58 24° 309° (NW) 10:01:33 436.775 MHz
UKube-1 22 Oct 10:13:27 10:16:36 19° 95° (E) 10:19:44 145.840 MHz, 145.915 MHz
HO-68 22 Oct 10:21:09 10:28:21 69° 104° (ESE) 10:35:29 435.675 MHz FM
PANSAT 22 Oct 10:41:02 10:44:10 24° 177° (S) 10:47:18 not established
RS-15 22 Oct 10:41:26 10:50:22 28° 256° (WSW) 10:59:38 29.354 - 29.394 USB, Beacon 29.352 USB
FUNcube-1 22 Oct 10:48:18 10:51:06 17° 93° (E) 10:53:52 145.950 - 145.970 MHz USB
MaSat-1 22 Oct 10:55:53 10:58:28 73° 248° (WSW) 11:00:51 437.345 MHz
Oscar 11 22 Oct 10:56:43 11:00:58 58° 100° (E) 11:05:12 145.825 FM, Beacon 2401.500 USB
ZACube-1 22 Oct 11:37:55 11:42:12 70° 101° (ESE) 11:46:21 437.345 MHz
UKube-1 22 Oct 11:48:56 11:52:49 32° 289° (WNW) 11:56:41 145.840 MHz, 145.915 MHz
KITSAT 1 22 Oct 12:08:07 12:14:35 27° 105° (ESE) 12:21:04 435.175 FM
HO-68 22 Oct 12:10:14 12:15:21 22° 300° (WNW) 12:20:28 435.675 MHz FM
PANSAT 22 Oct 12:20:55 12:23:49 21° 189° (S) 12:26:44 not established
FUNcube-1 22 Oct 12:23:45 12:27:34 33° 289° (WNW) 12:31:19 145.950 - 145.970 MHz USB
Oscar 11 22 Oct 12:35:20 12:36:37 11° 295° (WNW) 12:37:53 145.825 FM, Beacon 2401.500 USB
PCSat 22 Oct 12:45:43 12:46:25 10° 43° (NE) 12:47:08 145.825 MHz
ISS 22 Oct 13:11:52 13:14:23 20° 130° (SE) 13:16:55 145.800 FM
Oscar 16 22 Oct 13:13:22 13:17:24 24° 67° (ENE) 13:21:25 437.025 USB, Beacon 2401.1428
SO-50 22 Oct 13:14:40 13:18:07 22° 110° (ESE) 13:21:38 436.795 FM
Uribyol 2 22 Oct 13:29:34 13:32:13 14° 63° (ENE) 13:34:52 436.500 FM
AO-Echo 22 Oct 13:31:44 13:34:40 16° 64° (ENE) 13:37:39 ?
JAS-1B 22 Oct 13:32:23 13:37:38 31° 68° (ENE) 13:42:32 435.800 - 435.900 CW/SSB
ITAMSAT 1 22 Oct 13:34:41 13:37:30 15° 63° (ENE) 13:40:20 435.822 SSB
KITSAT 1 22 Oct 14:01:28 14:09:25 60° 302° (WNW) 14:17:24 435.175 FM
Sapphire 22 Oct 14:02:46 14:07:52 40° 57° (ENE) 14:12:55 437.095 MHz 1200 baud AX-25 AFSK
Oscar 19 22 Oct 14:05:57 14:11:06 76° 75° (ENE) 14:16:15 437.125 CW, 437.150 USB
AO-27 22 Oct 14:17:13 14:22:01 39° 70° (ENE) 14:26:50 436.795 MHz FM
PCSat 22 Oct 14:25:26 14:30:52 68° 62° (ENE) 14:36:14 145.825 MHz
ISS 22 Oct 14:47:50 14:50:55 35° 325° (NW) 14:54:01 145.800 FM
Oscar 16 22 Oct 14:51:44 14:56:30 37° 262° (W) 15:01:17 437.025 USB, Beacon 2401.1428
UOSAT-12 22 Oct 14:53:09 14:56:32 21° 110° (ESE) 14:59:59 437.025 FM, 437.400 FM
Oscar 10/S400 22 Oct 14:53:51 15:12:29 50° 157° (SSE) 15:39:10 145.825 - 145.975 CW/USB, Beacon 145.810 USB
SO-50 22 Oct 14:54:21 14:58:26 34° 307° (NW) 15:02:38 436.795 FM
Uribyol 2 22 Oct 15:05:54 15:11:04 67° 258° (WSW) 15:16:18 436.500 FM
AO-Echo 22 Oct 15:08:16 15:12:56 51° 260° (W) 15:17:47 ?
ITAMSAT 1 22 Oct 15:11:16 15:16:25 63° 258° (WSW) 15:21:37 435.822 SSB
Gurwin Techsat 1B 22 Oct 15:15:17 15:20:33 71° 75° (ENE) 15:25:51 435.225 FM
JAS-1B 22 Oct 15:22:52 15:28:16 31° 262° (W) 15:33:18 435.800 - 435.900 CW/SSB
TMSAT-1 22 Oct 15:28:17 15:33:32 69° 74° (ENE) 15:38:50 436.925 FM
AO-7 22 Oct 15:31:54 15:38:41 30° 59° (ENE) 15:45:28 29.400 - 29.500 MHz
Sapphire 22 Oct 15:46:40 15:51:02 25° 253° (WSW) 15:55:22 437.095 MHz 1200 baud AX-25 AFSK
Oscar 19 22 Oct 15:49:55 15:50:55 11° 270° (W) 15:51:56 437.125 CW, 437.150 USB
AO-27 22 Oct 15:57:37 16:01:36 22° 265° (W) 16:05:38 436.795 MHz FM
KITSAT 1 22 Oct 16:02:29 16:06:40 15° 325° (NW) 16:10:51 435.175 FM
PCSat 22 Oct 16:10:59 16:13:37 14° 257° (WSW) 16:16:14 145.825 MHz
UOSAT-12 22 Oct 16:32:03 16:36:23 39° 306° (NW) 16:40:49 437.025 FM, 437.400 FM
Saudisat 1A 22 Oct 16:44:11 16:46:48 15° 46° (NE) 16:49:25 436.775 MHz
Uosat F 22 Oct 16:50:30 16:55:26 63° 74° (ENE) 17:00:25 435.120 FM
Gurwin Techsat 1B 22 Oct 16:59:04 17:00:59 12° 269° (W) 17:02:54 435.225 FM
TMSAT-1 22 Oct 17:11:49 17:13:54 12° 269° (W) 17:16:00 436.925 FM
AO-7 22 Oct 17:22:50 17:30:56 59° 257° (WSW) 17:39:06 29.400 - 29.500 MHz
JAS-2 22 Oct 18:05:42 18:11:22 73° 74° (ENE) 18:17:49 435.800 - 435.900 CW/SSB, 435.910 FM
Hamsat 22 Oct 18:07:03 18:11:04 45° 74° (ENE) 18:15:05 145.90 MHz
Saudisat 1A 22 Oct 18:22:23 18:26:44 58° 243° (WSW) 18:31:03 436.775 MHz
OPAL 22 Oct 18:25:38 18:30:30 54° 103° (ESE) 18:35:18 ?
Uosat F 22 Oct 18:32:29 18:34:36 13° 268° (W) 18:36:43 435.120 FM
AO-40 22 Oct 19:02:55 01:13:22 49° 183° (S) 06:02:25 Beacon 2401.320
SO-67 22 Oct 19:31:05 19:34:24 48° 76° (ENE) 19:37:44 435.3500 MHz FM
ISS 22 Oct 19:42:39 19:44:33 14° 25° (NNE) 19:46:28 145.800 FM
Hamsat 22 Oct 19:45:23 19:47:13 13° 268° (W) 19:49:03 145.90 MHz
JAS-2 22 Oct 19:54:32 19:57:17 13° 273° (W) 20:00:11 435.800 - 435.900 CW/SSB, 435.910 FM
KITSAT 1 22 Oct 20:05:06 20:07:22 11° 29° (NNE) 20:09:38 435.175 FM
STRAND 1 22 Oct 20:05:52 20:11:00 63° 101° (ESE) 20:16:04 ?
OPAL 22 Oct 20:05:55 20:08:54 16° 298° (WNW) 20:11:52 ?
HO-68 22 Oct 20:47:04 20:53:36 40° 66° (ENE) 21:00:10 435.675 MHz FM
UKube-1 22 Oct 21:07:48 21:09:50 13° 65° (ENE) 21:11:52 145.840 MHz, 145.915 MHz
ISS 22 Oct 21:18:18 21:21:39 87° 221° (SW) 21:24:58 145.800 FM
FUNcube-1 22 Oct 21:43:22 21:45:15 12° 65° (ENE) 21:47:08 145.950 - 145.970 MHz USB
STRAND 1 22 Oct 21:46:51 21:49:37 15° 297° (WNW) 21:52:21 ?
SO-50 22 Oct 21:48:46 21:51:23 14° 44° (NE) 21:53:59 436.795 FM
Oscar 11 22 Oct 21:49:24 21:53:16 33° 72° (ENE) 21:57:09 145.825 FM, Beacon 2401.500 USB
KITSAT 1 22 Oct 21:57:30 22:05:11 45° 54° (NE) 22:12:48 435.175 FM
ZACube-1 22 Oct 22:31:28 22:35:48 42° 73° (ENE) 22:40:07 437.345 MHz
HO-68 22 Oct 22:34:51 22:41:16 35° 262° (W) 22:47:44 435.675 MHz FM
UKube-1 22 Oct 22:41:20 22:45:33 50° 260° (W) 22:49:48 145.840 MHz, 145.915 MHz
RS-15 22 Oct 22:47:49 22:58:35 61° 112° (ESE) 23:09:12 29.354 - 29.394 USB, Beacon 29.352 USB
FUNcube-1 22 Oct 23:16:33 23:21:06 60° 260° (W) 23:25:37 145.950 - 145.970 MHz USB
UOSAT-12 22 Oct 23:25:50 23:27:36 12° 42° (NE) 23:29:22 437.025 FM, 437.400 FM
Oscar 11 22 Oct 23:26:29 23:29:29 18° 266° (W) 23:32:31 145.825 FM, Beacon 2401.500 USB
SO-50 22 Oct 23:27:38 23:32:30 79° 242° (WSW) 23:37:22 436.795 FM
KITSAT 1 22 Oct 23:53:08 00:00:24 39° 252° (WSW) 00:07:40 435.175 FM
ZACube-1 23 Oct 00:09:27 00:12:20 16° 267° (W) 00:15:12 437.345 MHz
MaSat-1 23 Oct 00:29:50 00:34:02 52° 111° (ESE) 00:37:52 437.345 MHz
RS-15 23 Oct 01:01:26 01:11:23 38° 314° (NW) 01:21:23 29.354 - 29.394 USB, Beacon 29.352 USB
UOSAT-12 23 Oct 01:03:43 01:08:27 89° 60° (ENE) 01:13:04 437.025 FM, 437.400 FM
MaSat-1 23 Oct 02:08:03 02:09:53 13° 303° (WNW) 02:11:40 437.345 MHz
Oscar 19 23 Oct 02:20:33 02:25:07 32° 97° (E) 02:29:39 437.125 CW, 437.150 USB
AO-27 23 Oct 02:33:53 02:37:14 17° 93° (E) 02:40:33 436.795 MHz FM
Oscar 16 23 Oct 03:05:32 03:10:40 86° 284° (WNW) 03:15:47 437.025 USB, Beacon 2401.1428
JAS-1B 23 Oct 03:06:21 03:13:03 74° 103° (ESE) 03:21:06 435.800 - 435.900 CW/SSB
AO-Echo 23 Oct 03:17:34 03:22:51 64° 101° (E) 03:28:06 ?
Uribyol 2 23 Oct 03:21:19 03:26:25 54° 101° (E) 03:31:29 436.500 FM
RS-15 23 Oct 03:22:54 03:28:18 14° 347° (NNW) 03:33:44 29.354 - 29.394 USB, Beacon 29.352 USB
PCSat 23 Oct 03:25:20 03:27:07 12° 102° (ESE) 03:28:55 145.825 MHz
ITAMSAT 1 23 Oct 03:26:45 03:31:55 58° 101° (E) 03:37:02 435.822 SSB
Gurwin Techsat 1B 23 Oct 03:34:26 03:39:16 35° 97° (E) 03:44:05 435.225 FM
TMSAT-1 23 Oct 03:47:05 03:51:53 34° 97° (E) 03:56:38 436.925 FM
Oscar 19 23 Oct 04:00:06 04:04:18 26° 292° (WNW) 04:08:29 437.125 CW, 437.150 USB
AO-27 23 Oct 04:11:56 04:16:59 50° 288° (WNW) 04:22:00 436.795 MHz FM
Sapphire 23 Oct 04:41:43 04:47:01 61° 113° (ESE) 04:52:21 437.095 MHz 1200 baud AX-25 AFSK
AO-Echo 23 Oct 04:58:03 05:01:01 15° 296° (WNW) 05:04:00 ?
JAS-1B 23 Oct 04:58:52 05:03:14 19° 296° (WNW) 05:08:04 435.800 - 435.900 CW/SSB
Uosat F 23 Oct 05:01:28 05:05:30 24° 96° (E) 05:09:29 435.120 FM
Uribyol 2 23 Oct 05:02:09 05:05:24 17° 296° (WNW) 05:08:39 436.500 FM
PCSat 23 Oct 05:04:23 05:09:47 78° 297° (WNW) 05:15:14 145.825 MHz
ITAMSAT 1 23 Oct 05:07:46 05:10:53 16° 296° (WNW) 05:14:00 435.822 SSB
Gurwin Techsat 1B 23 Oct 05:14:42 05:19:02 26° 293° (WNW) 05:23:22 435.225 FM
JAS-2 23 Oct 05:19:20 05:23:22 15° 88° (E) 05:27:21 435.800 - 435.900 CW/SSB, 435.910 FM
AO-7 23 Oct 05:27:01 05:35:12 57° 103° (ESE) 05:43:21 29.400 - 29.500 MHz
TMSAT-1 23 Oct 05:27:14 05:31:37 27° 292° (WNW) 05:35:59 436.925 FM
OPAL 23 Oct 05:37:52 05:43:01 74° 73° (ENE) 05:48:08 ?
RS-15 23 Oct 05:40:04 05:47:17 19° 26° (NNE) 05:54:38 29.354 - 29.394 USB, Beacon 29.352 USB
Sapphire 23 Oct 06:27:06 06:30:51 19° 311° (NW) 06:34:37 437.095 MHz 1200 baud AX-25 AFSK
Uosat F 23 Oct 06:39:45 06:44:17 35° 290° (WNW) 06:48:49 435.120 FM
PCSat 23 Oct 06:52:15 06:54:06 12° 316° (NW) 06:55:57 145.825 MHz
JAS-2 23 Oct 07:01:20 07:09:10 85° 104° (ESE) 07:16:58 435.800 - 435.900 CW/SSB, 435.910 FM
STRAND 1 23 Oct 07:19:13 07:24:17 70° 74° (ENE) 07:29:25 ?
AO-7 23 Oct 07:20:35 07:27:29 31° 300° (WNW) 07:34:25 29.400 - 29.500 MHz
OPAL 23 Oct 07:20:55 07:22:20 11° 267° (W) 07:23:44 ?
Hamsat 23 Oct 07:30:44 07:34:52 59° 285° (WNW) 07:39:00 145.90 MHz
